[[{"header":{"parameterUnit":"m.s-1","parameterCategory":1,"la1":30.2991,"la2":30.254,"lo1":-89.0895,"lo2":-89.0444,"dy":0.0017,"dx":0.0017,"nx":28,"ny":28,"refTime":"2024-08-09T09:00:00:Z","depth":0,"parameterNumber":2,"parameterNumberName":"U-component_of_WINDS"},"data":[0,0,0,0,0,0,0,0,0,0,0,0,0,0,0,0,0,0,0,0,0,0,0,0,0,0,0,0,0,0,0,0,0,0,0,0,0,0,0,0,0,0,0,0,0,0,0,0,0,0,0,0,0,0,0,0,0,0,1.4024,1.4025,0,1.4144,1.4145,1.4147,1.4188,1.4188,1.4187,1.4187,1.4311,1.4314,1.4318,0,0,0,0,0,0,0,0,0,0,0,0,0,1.383,1.3833,1.4024,1.4025,1.4027,1.4144,1.4145,1.4147,1.4188,1.4188,1.4187,1.4187,1.4309,1.4314,1.4318,0,0,0,0,0,0,0,0,0,0,0,0,0,1.3928,1.3834,1.4024,1.4062,1.4066,1.4143,1.4145,1.4147,1.4188,1.4188,1.4187,1.4186,1.4308,1.4313,1.4319,1.4368,0,0,1.4336,1.4338,0,0,0,0,0,0,0,0,1.3923,1.3935,1.4054,1.4059,1.4064,1.415,1.4122,1.4221,1.4189,1.4142,1.4187,1.4186,1.4258,1.4268,1.4292,1.4373,1.4379,1.4336,1.434,1.4342,1.4344,0,0,0,0,0,0,0,1.3916,1.3931,1.4071,1.4056,1.4062,1.4072,1.4086,1.4141,1.4202,1.4146,1.4149,1.4163,1.426,1.4286,1.4295,1.438,1.4336,1.4341,1.4345,1.4347,1.4506,1.4507,0,0,0,0,0,0,1.3903,1.3925,1.4068,1.4075,1.399,1.4076,1.4091,1.4123,1.4202,1.4213,1.4163,1.4164,1.4277,1.4288,1.4299,1.436,1.4342,1.4348,1.4351,1.4505,1.4506,1.4507,0,0,0,0,0,0,1.3898,1.3915,1.4063,1.4001,1.402,1.408,1.4116,1.4126,1.4152,1.4215,1.4226,1.4178,1.4277,1.4292,1.435,1.4365,1.435,1.4355,1.4504,1.4505,1.4507,1.4483,0,0,0,0,0,0,1.3893,1.3913,1.3933,1.4001,1.4023,1.4111,1.4117,1.4129,1.4161,1.4164,1.4232,1.4243,1.4277,1.4341,1.4355,1.4372,1.4359,1.4503,1.4505,1.4506,1.4482,1.4483,1.4483,0,0,0,0,0,1.3886,1.3922,1.3933,1.395,1.4049,1.4112,1.4125,1.4164,1.4162,1.4182,1.4222,1.4241,1.4361,1.4347,1.4363,1.4382,1.4502,1.4504,1.4506,1.4482,1.4483,1.4483,0,0,0,0,0,0,1.3854,1.3931,1.3945,1.4005,1.4051,1.4119,1.4145,1.4164,1.4212,1.4212,1.4259,1.4274,1.4328,1.4361,1.4344,1.4432,1.4433,1.4438,1.4409,1.441,1.4411,1.4401,1.4364,0,0,0,0,0,1.3854,1.3899,1.3964,1.401,1.4033,1.4085,1.4114,1.4139,1.419,1.421,1.4255,1.4303,1.4352,1.4383,1.4431,1.4487,1.4502,1.4508,1.4509,1.4509,1.4513,1.4543,1.4547,1.4513,1.4513,1.4513,0,0,1.3855,1.3902,1.3928,1.4005,1.4044,1.4089,1.4101,1.4149,1.4182,1.4217,1.4275,1.4309,1.4366,1.4422,1.445,1.4452,1.4525,1.4511,1.4511,1.4515,1.4546,1.4549,1.4551,1.4515,1.4515,1.4514,0,0,1.3878,1.3919,1.3961,1.4,1.4059,1.4093,1.4103,1.4168,1.4191,1.4249,1.4276,1.4317,1.44,1.4439,1.4469,1.4506,1.4524,1.452,1.4523,1.4552,1.4555,1.4557,1.4569,1.4573,1.4524,1.4524,1.4524,0,1.3871,1.394,1.3981,1.4026,1.4059,1.4092,1.4134,1.417,1.4242,1.4263,1.4264,1.4368,1.4409,1.4474,1.4482,1.4507,1.4519,1.4513,1.4551,1.4554,1.4557,1.4569,1.4573,1.4523,1.4523,1.4523,1.4523,0,1.3928,1.3975,1.4002,1.407,1.4105,1.4149,1.4195,1.4227,1.4249,1.4282,1.434,1.439,1.4448,1.4466,1.4489,1.4534,1.4533,1.4542,1.4543,1.4559,1.457,1.4575,1.4522,1.4522,1.4522,1.4522,0,0,1.3936,1.4024,1.4033,1.4063,1.413,1.4167,1.4212,1.4268,1.4293,1.4342,1.438,1.4448,1.4456,1.4491,1.4518,1.4544,1.4567,1.455,1.4552,1.455,1.4619,1.4612,1.4616,1.458,1.4581,1.4582,1.4614,0,1.3967,1.4048,1.4085,1.415,1.4193,1.4224,1.4263,1.4308,1.434,1.4381,1.4417,1.4464,1.4472,1.4493,1.452,1.4559,1.4582,1.4557,1.4615,1.4617,1.4599,1.4623,1.4615,1.4644,1.4619,1.462,1.4621,0,1.4015,1.4062,1.413,1.419,1.421,1.4244,1.4298,1.4337,1.4388,1.441,1.4447,1.4473,1.452,1.4518,1.4584,1.4566,1.4592,1.4614,1.4616,1.4623,1.4619,1.4629,1.4654,1.4658,1.4629,1.4628,1.4627,0,1.4012,1.4092,1.4143,1.4169,1.424,1.4263,1.4294,1.4345,1.4376,1.4422,1.4443,1.4495,1.4523,1.4563,1.4601,1.4596,1.4663,1.4664,1.4681,1.468,1.4694,1.4692,1.4722,1.4711,1.4711,1.4711,1.4711,0,1.4042,1.4083,1.4143,1.4174,1.422,1.4262,1.4306,1.4339,1.4383,1.4421,1.4451,1.4486,1.4536,1.4577,1.4607,1.4656,1.4669,1.4687,1.4695,1.4684,1.4682,1.4702,1.47,1.4712,1.4712,1.4712,1.4712,0,1.4047,1.4089,1.4146,1.4209,1.4226,1.4256,1.431,1.4341,1.4374,1.4422,1.4435,1.4488,1.4537,1.458,1.4646,1.4666,1.4716,1.4726,1.4699,1.4703,1.4717,1.4715,1.476,1.4768,1.4752,1.4752,1.4752,0,1.4063,1.4095,1.416,1.4188,1.4218,1.4262,1.4293,1.4335,1.4367,1.4426,1.445,1.4501,1.4545,1.4623,1.4666,1.4716,1.4727,1.4739,1.4735,1.4723,1.4726,1.4723,1.4726,1.4739,1.4739,1.4739,1.4739,0,1.4087,1.4106,1.415,1.4201,1.4237,1.428,1.4323,1.4343,1.4393,1.4427,1.4477,1.4511,1.4577,1.4628,1.4682,1.4714,1.4735,1.474,1.4747,1.4736,1.4719,1.4727,1.4698,1.4739,1.4739,1.4739,1.4739,1.4739,1.4097,1.4126,1.4177,1.4224,1.4261,1.43,1.4332,1.4369,1.4412,1.4469,1.4491,1.4542,1.4592,1.4667,1.4698,1.4739,1.4742,1.4752,1.4754,1.4756,1.4754,1.4712,1.4749,1.4749,1.4749,1.4749,1.4749,0,1.4122,1.4156,1.4199,1.4258,1.4295,1.4311,1.4359,1.4389,1.4434,1.4478,1.452,1.4577,1.4626,1.4673,1.4724,1.4748,1.4758,1.476,1.4758,1.4765,1.4748,1.4737,1.475,1.475,1.475,1.475,1.475,1.475,1.4139,1.4189,1.4213,1.4281,1.4314,1.4365,1.4391,1.4427,1.4462,1.4525,1.4565,1.4595,1.464,1.4695,1.474,1.4752,1.477,1.4768,1.4783,1.4767,1.4766,1.4766,1.4755,1.4772,1.4772,1.4796,1.4796,1.4797]},{"header":{"parameterUnit":"m.s-1","parameterCategory":1,"la1":30.2991,"la2":30.254,"lo1":-89.0895,"lo2":-89.0444,"dy":0.0017,"dx":0.0017,"nx":28,"ny":28,"refTime":"2024-08-09T09:00:00:Z","depth":0,"parameterNumber":3,"parameterNumberName":"V-component_of_WINDS"},"data":[0,0,0,0,0,0,0,0,0,0,0,0,0,0,0,0,0,0,0,0,0,0,0,0,0,0,0,0,0,0,0,0,0,0,0,0,0,0,0,0,0,0,0,0,0,0,0,0,0,0,0,0,0,0,0,0,0,0,3.0254,3.0254,0,3.0221,3.0221,3.022,3.0177,3.0176,3.0175,3.0175,3.014,3.014,3.0139,0,0,0,0,0,0,0,0,0,0,0,0,0,3.0279,3.0279,3.0254,3.0254,3.0254,3.0221,3.0221,3.022,3.0177,3.0176,3.0175,3.0174,3.014,3.014,3.0139,0,0,0,0,0,0,0,0,0,0,0,0,0,3.0259,3.0279,3.0254,3.0228,3.0225,3.0221,3.0221,3.022,3.0177,3.0176,3.0175,3.0174,3.014,3.014,3.0139,3.0158,0,0,3.0138,3.0138,0,0,0,0,0,0,0,0,3.026,3.0258,3.0232,3.023,3.0227,3.0202,3.0217,3.0199,3.0177,3.0195,3.0175,3.0173,3.0161,3.0159,3.0155,3.0157,3.0155,3.0138,3.0138,3.0138,3.0138,0,0,0,0,0,0,0,3.0262,3.026,3.0241,3.0232,3.0229,3.0217,3.0213,3.0213,3.0185,3.0194,3.019,3.0187,3.016,3.0156,3.0154,3.0155,3.0138,3.0138,3.0138,3.0137,3.0168,3.0169,0,0,0,0,0,0,3.0267,3.0261,3.0242,3.024,3.0241,3.0218,3.0213,3.0211,3.0185,3.018,3.0188,3.0185,3.0157,3.0155,3.0153,3.0171,3.0138,3.0137,3.0137,3.0167,3.0168,3.0169,0,0,0,0,0,0,3.0268,3.0266,3.0244,3.025,3.0246,3.0219,3.0216,3.0211,3.0207,3.018,3.0175,3.0189,3.0156,3.0153,3.0157,3.0169,3.0137,3.0137,3.0165,3.0167,3.0169,3.021,0,0,0,0,0,0,3.0269,3.0267,3.0274,3.025,3.0246,3.0249,3.0217,3.0211,3.0206,3.0202,3.018,3.0175,3.0155,3.0158,3.0156,3.0168,3.0137,3.0164,3.0166,3.0168,3.0207,3.0213,3.0217,0,0,0,0,0,3.027,3.0287,3.0274,3.0272,3.0254,3.025,3.0247,3.0223,3.0208,3.0214,3.0197,3.0176,3.0169,3.0158,3.0157,3.0169,3.0163,3.0166,3.0168,3.0205,3.0211,3.0217,0,0,0,0,0,0,3.0313,3.0284,3.0269,3.0279,3.0267,3.0242,3.025,3.0231,3.0223,3.022,3.0191,3.0186,3.0193,3.0181,3.017,3.0185,3.0163,3.0165,3.0191,3.0198,3.0203,3.0204,3.0136,0,0,0,0,0,3.0324,3.0323,3.0297,3.0308,3.0303,3.0278,3.0275,3.0258,3.0244,3.0238,3.0221,3.0209,3.0203,3.02,3.0194,3.0206,3.0199,3.0213,3.0218,3.0223,3.0224,3.0227,3.0233,3.0177,3.0177,3.0177,0,0,3.0346,3.0329,3.033,3.0316,3.0305,3.0304,3.0274,3.0274,3.0272,3.0238,3.024,3.0227,3.0211,3.0218,3.0221,3.0209,3.0238,3.0226,3.0229,3.0228,3.023,3.0236,3.024,3.0178,3.0178,3.0178,0,0,3.0384,3.0373,3.038,3.0369,3.0352,3.0335,3.0337,3.0315,3.0305,3.0306,3.028,3.0278,3.027,3.0258,3.0252,3.0286,3.0265,3.0285,3.031,3.0314,3.0318,3.0322,3.0332,3.0336,3.0287,3.0287,3.0287,0,3.0413,3.0411,3.0386,3.0387,3.0381,3.0351,3.0357,3.0348,3.033,3.0326,3.0314,3.0301,3.0288,3.0291,3.03,3.0296,3.0296,3.0286,3.032,3.0323,3.0326,3.0335,3.0339,3.0289,3.0289,3.0288,3.0288,0,3.0446,3.0445,3.0453,3.0435,3.0431,3.0435,3.041,3.0408,3.0391,3.0375,3.0376,3.036,3.0348,3.0348,3.0332,3.0349,3.0342,3.0325,3.0302,3.0334,3.0342,3.0345,3.0292,3.0291,3.0291,3.029,0,0,3.051,3.0479,3.0482,3.0473,3.0452,3.045,3.0453,3.0442,3.044,3.0429,3.0428,3.0422,3.0406,3.0398,3.0381,3.0384,3.0409,3.0366,3.0365,3.0373,3.0424,3.0435,3.044,3.0396,3.0397,3.0398,3.0424,0,3.0542,3.0545,3.0522,3.053,3.0527,3.0498,3.05,3.0487,3.0472,3.0468,3.0451,3.0446,3.0426,3.0421,3.0424,3.0406,3.0419,3.0404,3.0394,3.0394,3.0397,3.0444,3.0456,3.0483,3.0428,3.0428,3.0429,0,3.0581,3.0571,3.0579,3.0556,3.0554,3.0556,3.0544,3.054,3.0524,3.0513,3.0505,3.0485,3.0484,3.0464,3.0462,3.0452,3.0447,3.0438,3.0438,3.0434,3.0412,3.044,3.0491,3.0494,3.0434,3.0433,3.0433,0,3.0623,3.0613,3.0615,3.0609,3.0584,3.0585,3.0575,3.0558,3.0553,3.0542,3.0538,3.0527,3.0521,3.0513,3.049,3.0477,3.0489,3.0468,3.0479,3.0479,3.0481,3.0481,3.0529,3.0481,3.0481,3.0481,3.0481,0,3.0661,3.0666,3.0634,3.0635,3.064,3.0614,3.0619,3.0606,3.0591,3.0589,3.0564,3.0562,3.0533,3.0527,3.0509,3.0509,3.0507,3.0496,3.0491,3.0498,3.0499,3.0492,3.0489,3.0482,3.0482,3.0482,3.0482,0,3.0709,3.0688,3.0688,3.0664,3.0658,3.0662,3.0641,3.0641,3.0625,3.0622,3.062,3.0594,3.0586,3.0563,3.0549,3.0537,3.0541,3.0533,3.0546,3.0543,3.0554,3.0553,3.0599,3.0603,3.0555,3.0555,3.0555,0,3.0733,3.0736,3.0712,3.0709,3.07,3.0695,3.0689,3.0664,3.0659,3.0641,3.0642,3.0632,3.0623,3.0611,3.0591,3.058,3.057,3.0587,3.0568,3.0573,3.0567,3.0567,3.0566,3.059,3.0591,3.0591,3.0592,0,3.0777,3.0767,3.076,3.0749,3.0742,3.0733,3.0721,3.072,3.0692,3.0687,3.0679,3.0672,3.0657,3.0647,3.0633,3.0621,3.0601,3.0598,3.06,3.0605,3.0612,3.0606,3.0555,3.0597,3.0596,3.0596,3.0596,3.0596,3.0812,3.0813,3.0796,3.0789,3.0778,3.0768,3.0766,3.075,3.0742,3.0729,3.0715,3.0708,3.0691,3.0669,3.0659,3.0652,3.0642,3.0644,3.0645,3.0645,3.0647,3.0615,3.0649,3.0649,3.0649,3.0649,3.0649,0,3.0854,3.0842,3.0835,3.082,3.0814,3.0797,3.0784,3.0779,3.0773,3.076,3.0751,3.074,3.073,3.0709,3.0697,3.0695,3.0686,3.0693,3.0692,3.0689,3.0658,3.0657,3.07,3.07,3.07,3.07,3.07,3.07,3.0874,3.0874,3.0862,3.0856,3.0843,3.0836,3.083,3.082,3.0808,3.0798,3.079,3.0777,3.0759,3.0745,3.0735,3.0729,3.0724,3.0734,3.0725,3.0696,3.0691,3.0686,3.0685,3.0734,3.0734,3.0755,3.0755,3.0756]}]]